Location: Boiro
(42.6475°N, 8.8834°W)
Time: 11:26:23
(UTC+01:00)

Transit 4A - Pass Details

Date: 08 December 2021
Orbit: 863 x 981 km, 66.8° (Epoch: 25 January)

Event Time Altitude Azimuth Distance (km) Brightness Sun altitude
Rises 21:42:14 0° 261° (W) 3,479 11.7 -39.7°
Reaches altitude 10° 21:45:31 10° 280° (W) 2,562 10.9 -40.3°
Enters shadow 21:49:09 18° 318° (NW) 2,052 10.0 -40.9°
